Overview Statistics Trail Chart Weather Telemetry Raw packets
 

This is the latest recevied weather packets stored in our database for station/object 9A7DI-13. If no packets are shown the sender has not sent any weather packets the latest 10 day(s).

<< 13 14 15 16 17 18 19 >>
Time Temp. Humidity Pressure Rain* Wind** Luminosity Snow
1788454603 27.78° C 35% 1026 hPa - - - -
1788454003 28.33° C 35% 1026.1 hPa - - - -
1788453410 28.33° C 34% 1026.1 hPa - - - -
1788452803 28.89° C 33% 1026.1 hPa - - - -
1788452203 29.44° C 32% 1026 hPa - - - -
1788451603 29.44° C 32% 1025.9 hPa - - - -
1788451003 29.44° C 30% 1026 hPa - - - -
1788450403 29.44° C 31% 1026 hPa - - - -
1788449803 30° C 30% 1025.9 hPa - - - -
1788449203 30° C 29% 1026 hPa - - - -
1788448603 30° C 30% 1025.8 hPa - - - -
1788448003 30° C 28% 1025.8 hPa - - - -
1788447403 30.56° C 24% 1025.8 hPa - - - -
1788446803 30.56° C 26% 1025.9 hPa - - - -
1788446203 30.56° C 26% 1026.1 hPa - - - -
1788445616 30.56° C 26% 1026 hPa - - - -
1788445003 30.56° C 27% 1026 hPa - - - -
1788444403 30.56° C 26% 1026 hPa - - - -
1788443803 31.11° C 26% 1026 hPa - - - -
1788443203 30.56° C 27% 1026.3 hPa - - - -
1788442603 30.56° C 28% 1026.3 hPa - - - -
1788442003 30° C 28% 1026.5 hPa - - - -
1788441403 30.56° C 29% 1026.5 hPa - - - -
1788440803 30.56° C 28% 1026.6 hPa - - - -
1788440203 30.56° C 30% 1026.6 hPa - - - -

* Rain since midnight (hover to see other rain measurements)
** Current wind speed in m/s (hover to see current wind gust speed)